SEPTEMBER 2022
DATE MATCH TIP ODD RESULT
30.09.2022 Hull – Luton 2 2.40 0:2
29.09.2022 Boca Juniors – Quilmes 1 2.00 3:2
28.09.2022 Olmedo – Chacaritas 1 2.20 1:0
27.09.2022 Farnborough – Chelmsford 2 2.20 0:1
26.09.2022 Las Palmas – Granada CF 1 2.20 2:0
25.09.2022 Manta – Imbabura 1 2.10 1:0
24.09.2022  Eastleigh – FC Halifax 1 2.20 1:0
23.09.2022 Hull U21 – Birmingham U21 1 2.20 3:1
22.09.2022 Kazakhstan – Belarus 1 2.10 2:1
21.09.2022 Scotland – Ukraine 1 2.50 3:0
20.09.2022 Kalsdorf – Allerheiligen 1 2.30 2:1
19.09.2022 Almagro – Deportivo Maipu 1 2.20 1:0
18.09.2022 G.A. Eagles – FC Emmen 1 2.30 2:0
17.09.2022 Altach – A. Klagenfurt 2 2.30 1:4
16.09.2022 Galway – Cork City 1 2.30 2:1
15.09.2022 Liverpool M. – Penarol 2 2.30 0:1
14.09.2022 Baroka – Pretoria Callies 1 2.20 3:1
13.09.2022 Barrow – Doncaster 1 2.10 2:0
12.09.2022 Bnei Yehuda – Hapoel Petah Tikva 1 2.60 1:0
11.09.2022 Asteras Tripolis – Aris 2 2.20 0:2
10.09.2022 Dijon – Sochaux 2 2.40 0:2
09.09.2022 Tychy – Odra Opole 1 2.00 2:0
08.09.2022  Hearts – Basaksehir 2 2.30 0:4
07.09.2022 CD Santa – Cruz Rangers 1 2.10 2:1
06.09.2022 Temperley – Ferro 1 2.40 1:0
05.09.2022 America De Cali – Dep. Cali 1 2.00 1:0
04.09.2022 Volos – OFI Crete 1 2.00 0:1
03.09.2022 Emden – Bremer 2 2.20 3:0
02.09.2022 RW Essen – Aue 1 2.20 2:1
01.09.2022 FC Botosani – FC Arges  Btts 2.20 0:0

 

AUGUST 2022
DATE MATCH TIP ODD RESULT
31.08.2022 Lille – Nice 1 2.10 1:2
30.08.2022 Rodez – Metz 2 2.20 1:4
29.08.2022  Tonbridge – St Albans 2 2.20 1:2
28.08.2022 Troyes – Angers 1 2.25 3:1
27.08.2022  FC Halifax – Notts Co 2 2.20 1:4
26.08.2022  Admira – St. Polten 1 2.30 1:0
25.08.2022  Hearts (Sco) – Zurich (Sui) 2 2.50 0:1
24.08.2022  Aurora – Bolivar 2 2.30 1:4
23.08.2022  U. De Chile – Cobresal 1 2.40 1:0
22.08.2022  Estudiantes L.P. – Union de Santa Fe 1 2.10 1:0
21.08.2022  Portimonense – Vitoria Guimaraes 1 2.40 2:1
20.08.2022  Osasuna – Cadiz CF 1 2.10 2:0
19.08.2022  Petrolera – Deportivo Cali 1 2.30 4:4
18.08.2022  Al Masry – El Ismaily 1 2.30 4:1
17.08.2022  S. Wanderers – Deportes Temuco 1 2.20 3:0
16.08.2022  Exeter – Wycombe 1 2.20 3:1
15.08.2022  Botev Vratsa – Spartak Varna 1 2.00 1:0
14.08.2022  FC Volendam – Nijmegen 2 2.30 1:4
13.08.2022  Cheltenham – Portsmouth 2 2.30 0:2
12.08.2022  B.93 – Roskilde 1 2.30 3:1
11.08.2022  Termalica B-B. – Chrobry Glogow 3+ 2.10 3:1
10.08.2022  Port Vale – Rotherham 2 2.30 1:2
09.08.2022  Deportes Iquique – S. Morning 1 2.00 3:1
08.08.2022  Septemvri Sofia – Lok. Sofia 2 2.40 0:3
07.08.2022  Odense – Aarhus 2 2.30 1:2
06.08.2022  Leeds – Wolves 1 2.25 2:1
05.08.2022  Ried (Am) – SC Weiz 1 2.20 4:0
04.08.2022  Huila – Fortaleza 2 2.20 1:2
03.08.2022  Dyn. Kyiv (Ukr) – Sturm Graz (Aut) 1 2.20 1:0
02.08.2022  Spvgg Ansbach 09 – Aubstadt 2 2.10 1:2
01.08.2022  Goteborg – Norrkoping 1 2.50 2:0

 

JULY 2022
DATE MATCH TIP ODD RESULT
31.07.2022  Kongsvinger – Mjondalen 1 2.30 2:1
30.07.2022  Elgin City – East Fife 2 2.30 1:3
29.07.2022  Cracovia – Legia 1 2.50 3:0
28.07.2022  Brondby (Den) – Pogon Szczecin (Pol) 1 2.25 4:0
27.07.2022  Sandefjord – Kristiansund 1 2.30 2:0
26.07.2022  Al Ittihad – Enppi 1 2.30 2:1
25.07.2022  Bogota – Quindio 2 2.40 1:2
24.07.2022  O'Higgins – U. De Chile 1 2.15 1:0
23.07.2022  Brage – Halmstad 2 2.10 1:2
22.07.2022  Mioveni – Farul Constanta 2 2.30 0:2
21.07.2022  Valmiera (Lat) – Shkendija (Mkd) 1 2.10 1:2
20.07.2022  Mushuc Runa – Cumbaya 1 2.20 1:0
19.07.2022  Qarabag (Aze) – Zurich (Sui) 1 2.10 3:2
18.07.2022  Haka – Inter Turku 1 2.20 3:2
17.07.2022  Viborg – Aalborg 1 2.30 2:1
16.07.2022  St. Pauli – Nurnberg 1 2.40 3:2
15.07.2022  Kaiserslautern – Hannover 1 2.40 2:1
14.07.2022  Ararat Yerevan (Arm) – Shkendija (Mkd) 2 2.40 2:2
13.07.2022  Tochigi SC – Kyoto 2 2.20 1:2
12.07.2022  Ujpest (Hun) – Bohemians (Cze) 2 2.30 0:1
11.07.2022  Sport Boys – Cajamarca 1 2.20 3:0
10.07.2022  Botafogo SP – Ypiranga FC 1 2.30 1:0
09.07.2022  Deportivo Armenio – Dock Sud 1 2.20 2:0
08.07.2022  Paderborn (Ger) – Bochum (Ger) 1 2.50 2:0
07.07.2022  Blooming – Santa Cruz 1 2.00 5:1
06.07.2022  Inter Turku (Fin) – Drita (Kos) 1 2.10 1:0
05.07.2022  San Lorenzo – Sportivo Trinidense 1 2.50 3:0
04.07.2022  Olmedo – Mushuc Runa 2 2.00 1:2
03.07.2022  Oriente Petrolero – The Strongest 1 2.20 3:0
02.07.2022  Ostersund – Utsikten 2 2.20 0:3
01.07.2022  Cobh Ramblers – Treaty United 2 2.20 0:2

 

JUNE 2022
DATE MATCH TIP ODD RESULT
30.06.2022  Ull/Kisa – Ranheim 2 2.20 0:2
29.06.2022  Smouha – Al Ahly 3+ 2.00 3:2
28.06.2022  Operario – Chapecoense-SC 1 2.30 2:1
27.06.2022  El Gouna – Eastern Company 3+ 2.00 2:3
26.06.2022  Kyoto – Shonan Bellmare 2 2.30 0:1
25.06.2022  Londrina – Guarani 1 2.30 3:1
24.06.2022  Atl. Tucuman – Independiente 2 2.30 0:1
23.06.2022  Atletico-MG – Flamengo RJ 1 2.00 2:1
22.06.2022  National Bank Egypt – Zamalek 2 2.00 1:2
21.06.2022  Independiente – Estudiantes L.P. 1 2.30 2:1
20.06.2022  Kongsvinger – Grorud 1 2.10 2:2
19.06.2022  Tigres – Bogota 1 2.40 1:0
18.06.2022  Dep. Merlo – Argentino Quilmes 3+ 2.00 1:2
17.06.2022  Vitebsk – Zhodino 2 2.20 0:1
16.06.2022  Shandong Taishan – Changchun Yatai 1 2.05 4:0
15.06.2022  Atl. Tucuman – Lanus 1 2.50 2:1
14.06.2022  Eidsvold TF – Kongsvinger 4+ 2.35 3:2
13.06.2022  Fenix – San Miguel 2 2.40 1:2
12.06.2022  Norway – Sweden 3+ 2.00 3:2
11.06.2022  Portuguesa RJ – Santo Andre 1 2.10 1:0
10.06.2022  Moldova – Latvia 2 2.40 2:4
09.06.2022  Bragantino – Flamengo RJ 1 2.40 1:0
08.06.2022  Palmaflor – The Strongest 2 2.40 1:2
07.06.2022  Faroe Islands – Luxembourg 2 2.10 0:1
06.06.2022  Racing Montevideo – CA Cerro 1 2.10 1:0
05.06.2022  Union Huaral – Cusco 2 2.30 0:1
04.06.2022  Tigres – Bogota 1 2.40 1:0
03.06.2022  Belgium – Netherlands 2 2.70 0:4
02.06.2022  Cartagena – Leones 2 2.20 0:1
01.06.2022  Bremer – Todesfelde 1 2.20 2:0

 

MAY 2022
DATE MATCH TIP ODD RESULT
31.05.2022  Alianza Lima – Cienciano 1 2.00 1:0
30.05.2022  Oriente Petrolero – Bolivar 1 2.50 1:0
29.05.2022  Solihull Moors – Chesterfield 1 2.10 3:1
28.05.2022  F. Amager – Vendsyssel 2 2.60 1:4
27.05.2022  Al Nasr – Wadi Degla 2 2.00 1:2
26.05.2022  Londrina – Operario 1 2.20 2:1
25.05.2022  Fylkir – Vestmannaeyjar 1 2.10 2:1
24.05.2022  U. De Concepcion – S. Morning 1 2.30 5:1
23.05.2022  KFUM Oslo – Kongsvinger 1 2.00 1:0
22.05.2022  Alta – Levanger 1 2.00 2:1
21.05.2022  Slask Wroclaw – Gornik Z. 2 2.30 3:4
20.05.2022  Hellerup – Hillerod 2 2.30 1:2
19.05.2022  Opava – Bohemians 2 2.20 0:1
18.05.2022  Northampton – Mansfield 1 2.20 0:1
17.05.2022  Western United – Melbourne Victory 2 2.10 0:1
16.05.2022  Lillestrom – Sarpsborg 08 1 2.10 1:0
15.05.2022  Ilves – Mariehamn 1 2.00 1:0
14.05.2022  Wil – Thun 2 2.30 1:2
13.05.2022  Melipilla – Magallanes 2 2.00 1:2
12.05.2022  Keflavik – Leiknir 1 2.00 3:0
11.05.2022  Alaves – Espanyol 1 2.05 2:1
10.05.2022  Avai – Coritiba 1 2.30 2:1
09.05.2022  San Carlos – Cartagines 1 2.30 3:2
08.05.2022  Lorient – Marseille 2 2.00 0:3
07.05.2022  Hoffenheim – Bayer Leverkusen 2 2.20 2:4
06.05.2022  Bochum – Arminia Bielefeld 1 2.10 2:1
05.05.2022  Deportes Tolima (Col) – Ind. del Valle (Ecu) 1 2.20 1:0
04.05.2022  Steaua Bucuresti – U. Cluj 2 2.30 0:2
03.05.2022  Aguilas – Dep. Pasto 1 2.00 1:0
02.05.2022  Blyth – Curzon Ashton 1 2.30 1:0
01.05.2022  Bordeaux – Nice 2 2.10 0:1
 

 

APRIL 2022
DATE MATCH TIP ODD RESULT
30.04.2022  Sud America – Atenas 1 2.35 1:0
29.04.2022  Braunschweig – Magdeburg 1 2.30 2:1
28.04.2022  Zulia – Zamora 2 2.10 0:2
27.04.2022  Vitebsk – FC Gomel 1 2.40 1:0
26.04.2022  Orebro – Halmstad 2 2.45 0:2
25.04.2022  Mjondalen – Fredrikstad 1 2.30 2:0
24.04.2022  Aarhus – Odense 2 2.40 1:2
23.04.2022  Boreham Wood – Bromley 1 2.30 2:0
22.04.2022  Fredericia – Lyngby 2 2.10 1:3
21.04.2022  FC Porto – Sporting 1 2.20 1:0
20.04.2022  Bordeaux – St Etienne 3+ 2.00 2:2
19.04.2022  Charlton U23 – Cardiff U23 1 2.20 6:1
18.04.2022  America De Cali – Dep. Cali 1 2.10 1:1
17.04.2022  Sirius – Helsingborg 1 2.20 1:0
16.04.2022  Maritimo – Boavista 1 2.30 4:0
15.04.2022  Harrogate – Swindon 2 2.30 1:4
14.04.2022  Siegen – Vreden 1 2.00 5:2
13.04.2022  Ahlen – Schalke II 1 2.30 3:2
12.04.2022  Portsmouth – Rotherham 3+ 2.00 3:0
11.04.2022  Hull U23 – Cardiff U23 1 2.40 3:0
10.04.2022  Brown Adrogue – Deportivo Maipu 3+ 2.10 1:2
09.04.2022  Wehen – Braunschweig 2 2.30 0:1
08.04.2022  Zaglebie – Stal Mielec 1 2.00 3:1
07.04.2022  Honka – Haka 3+ 2.10 3:2
06.04.2022  Nottingham – Coventry 1 2.00 2:0
05.04.2022  Braga U23 – Benfica U23 2 2.30 1:5
04.04.2022  Nancy – AC Ajaccio 2 2.20 0:2
03.04.2022  Dock Sud – Villa San Carlos 1 2.20 3:1
02.04.2022  Curzon Ashton – Spennymoor 2 2.40 0:3
01.04.2022  Bohemians – Derry City 2 2.40 1:2

 

MARCH 2022
DATE MATCH TIP ODD RESULT
31.03.2022 NO MATCH      
30.03.2022  Picerno – Campobasso 1 2.20 3:2
29.03.2022 Saudi Arabia – Australia 1 2.30 1:0
28.03.2022 Bourg en Bresse – Laval Btts-Yes 2.00 1:2
27.03.2022 St. Pauli II – Luneburger Hansa 1 2.30 4:0
26.03.2022 East Fife – Alloa 2 2.40 0:3
25.03.2022 Southampton U23 – Wolves U23 2 2.15 2:4
24.03.2022 Aguilas – Pereira 1 2.10 1:0
23.03.2022 Potenza – Paganese Btts-Yes 2.00 1:1
22.03.2022 Rochdale – Mansfield 2 2.30 0:1
21.03.2022 Concarneau – Chateauroux 1 2.20 0:0
20.03.2022 Ferreira – Moreirense 1 2.20 2:1
19.03.2022 Bohemians – Slovacko 2 2.30 1:2
18.03.2022 Edinburgh City – Stranraer 2 2.30 1:2
17.03.2022 Rennes – Leicester 3+ 2.00 2:1
16.03.2022 Millwall – Huddersfield 1 2.30 2:0
15.03.2022 Carlisle – Newport 2 2.30 1:2
14.03.2022 Athlone – Cobh Ramblers 3+ 2.00 2:3
13.03.2022 Betis – Ath Bilbao 1 2.30 1:0
12.03.2022 Stranraer – Cowdenbeath 1 2.00 3:0
11.03.2022 Watford U23 – Cardiff U23 2 2.10 0:2
10.03.2022 Leeds – Aston Villa 2 2.40 0:3
09.03.2022 Dundee FC – St. Mirren 2 2.60 0:1
08.03.2022 Atherton – Bamber Bridge 1 2.30 2:0
07.03.2022 Charlton U23 – Ipswich U23 2 2.35 1:5
06.03.2022 Teplice – Slovacko 2 2.15 0:1
05.03.2022 Pribram – Zizkov 1 2.20 2:1
04.03.2022 Lausanne Ouchy – Winterthur 1 2.20 3:1
03.03.2022 Baltika – FK Chayka 1 2.30 3:0
02.03.2022 U.A.N.L.- Tigres – Cruz Azul Btts-Yes 2.10 2:2
01.03.2022 AFC Telford – Curzon Ashton 1 2.40 2:1

 

FEBRUARY 2022
DATE MATCH TIP ODD RESULT
28.02.2022 Turkgucu Munchen – Saarbrucken 2 2.15 1:5
27.02.2022 Lazio – Napoli 2 2.30 1:2
26.02.2022 Ross County – St Johnstone 1 2.30 3:1
25.02.2022 Drogheda – Shelbourne 2 2.30 0:2
24.02.2022 Olympiacos Piraeus – Atalanta 2 2.15 0:3
23.02.2022 Eastern Company – Al Masry 3 2.10 2:2
22.02.2022 Chesterfield – Wrexham 2 2.30 0:2
21.02.2022 Entella – Siena 3+ 2.00 3:1
20.02.2022 Cesar Vallejo – Ayacucho 1 2.10 2:1
19.02.2022 Southampton – Everton 1 2.00 2:0
18.02.2022 Chambly – Villefranche 2 2.30 0:2
17.02.2022 FC Porto – Lazio 1 2.10 2:1
16.02.2022 Ilves – Honka 1 2.50 1:0
15.02.2022 Cosenza – Perugia 2 2.20 1:2
14.02.2022 Arouca – Maritimo 3+ 2.10 0:3
13.02.2022 Achnas – Paphos 2 2.00 0:1
12.02.2022 Millwall – Cardiff Btts-Yes 2.10 2:1
11.02.2022 Seraing – Antwerp 2 2.20 0:1
10.02.2022 Al Khor – Al-Gharafa 4+ 2.40 1:1
09.02.2022 Sheffield Utd – West Brom 1 2.25 2:0
08.02.2022 Tranmere – Swindon 1 2.30 3:0
07.02.2022 NO MATCH      
06.02.2022 Tenerife – Leganes 1 2.15 0:0
05.02.2022 Milton Keynes Dons – Lincoln City 1 2.00 2:1
04.02.2022 Getafe – Levante 1 2.10 3:0
03.02.2022 NO MATCH      
02.02.2022 Siena – Teramo 1 2.00 2:1
01.02.2022 Salford – Carlislee 1 2.00 2:1

 

JANUARY 2022
DATE MATCH TIP ODD RESULT
31.01.2022 Portsmouth – Charlton 3+ 2.00 1:2
30.01.2022 Babelsberg – Hertha Berlin II 1 2.30 3:0
29.01.2022 Annan – Stirling 1 2.10 0:0
28.01.2022 Aarau – Xamax 1 2.00 1:1
27.01.2022 NO MATCH // // //
26.01.2022 Lecce – L.R. Vicenza Atletico GO – CRAC 1 1 2.20 2.10 2:0 / 2:1 0:0 / 1:0
25.01.2022 Coventry – Stoke 1 2.20 1:0
24.01.2022 NO MATCH // // //
23.01.2022 Royale Union SG – Genk Rio Ave – SC Farense 1 1 2.10 2.10 2:1 2:1
22.01.2022 Brescia – Ternana Freiburg – Stuttgart 1 1 2.00 2.00 1:1 2:0
21.01.2022 Ferroviario – Icasa Boca Juniors – Universidad de Chile 1/1 1/1 2.10 2.10 1:0 / 2:0 1:2 / 3:2
20.01.2022 Ivory Coast – Algeria AS Roma – Lecce Btts-Yes Btts-Yes 2.00 2.00 3:1 3:1
19.01.2022 Montpellier – Troyes Toulouse – Nancy 1 1/1 1.75 2.10 0:1 2:0 / 4:0
18.01.2022 Sutton – Colchester Juventus – Sampdoria 1 1/1 1.80 2.10 3:2 1:0 / 4:1
17.01.2022 MS Kfar Qasem – Maccabi Ahi Nazareth 1 2.15 2:2
16.01.2022 Giannina – Atromitos 1 2.10 1:1
15.01.2022 Huddersfield – Swansea 1 2.60 1:1
14.01.2022 Queretaro – U.N.A.M.- Pumas 3+ 2.30 1:3
13.01.2022 NO MATCH // // //
12.01.2022 Atalanta – Venezia 1/1 2.00 1:0 / 2:0
11.01.2022 Forest Green – Colchester 1/1 2.30 1:0 / 2:0
10.01.2022 Hapoel Petah Tikva – Hapoel Afula 1 2.20 2:0
09.01.2022 AS Roma – Juventus 2 2.20 3:4
08.01.2022 Bromley – Solihull Moors 1 2.20 2:1
07.01.2022 Stade Briochin – Boulogne 1 2.20 1:0
06.01.2022 AC Milan – AS Roma 1 2.20 3:1
05.01.2022 QPR U23 – Middlesbrough U23 2 2.30 0:5
04.01.2022 Harrogate – Carlisle 1 2.10 1:0
03.01.2022 Maccabi Bnei Raina – Hapoel Ironi Rishon 1 2.15 2:0
02.01.2022 Leeds – Burnley 1 2.10 3:1
01.01.2022 Rushall – Coalville 1 2.40 5:1

 

DECEMBER 2021
DATE MATCH TIP ODD RESULT
31.12.2021 H. Raanana – Ramat Hasharon 3+ 2.10 2:1
30.12.2021 Sunderland – Sheffield Wednesday 3+ 2.10 5:0
29.12.2021 Morecambe – Crewe 2 2.75 1:2
28.12.2021 MS Kafr Qasim – Hapoel Ironi Rishon 1 2.80 2:1
27.11.2021 Atherton – Radcliffe 1 2.40 1:0
26.12.2021 Huddersfield – Blackpool 1 2.10 3:2
25.12.2021 Menemenspor – Bursaspor 1 2.65 0:0
24.12.2021 Sepahan – Paykan Btts-Yes 2.80 1:2
23.12.2021 Rio Ave – Belenenses 1 2.10 1:1
22.12.2021 Venezia – Lazio 2 2.00 1:3
21.12.2021 Villarreal – Alaves 3+ 2.10 5:2
20.12.2021 Pharco – Al Masry 2 2.40 0:1
19.12.2021 Leuven – St. Liege 1 2.20 2:1
18.12.2021 Portimonense – Arouca 1 2.00 1:1
17.12.2021 Almere City – FC Volendam 2 2.20 2:3
16.12.2021 Deportes Tolima – Petrolera 1/1 2.30 2:2
15.12.2021 Arsenal – West Ham 1 2.20 2:0
14.12.2021 Norwich – Aston Villa 2 2.20 0:2
13.12.2021 Sedan – Red Star 2 2.10 1:3
12.12.2021 Crystal Palace – Everton 1 2.30 3:1
11.12.2021 Grossaspach – Walldorf 2 2.30 0:4
10.12.2021 Regensburg – Werder Bremen 2 2.20 2:3
09.12.2021 CFR Cluj – Jablonec 1 2.30 2:0
08.12.2021 Grossaspach – RW Koblenz 2 2.50 1:4
07.12.2021 Harrogate – Forest Green 2 2.20 1:4
06.12.2021 Jong Ajax – FC Emmen 1 2.30 1:0
05.12.2021 Malaga – Amorebieta 1 2.00 1:2
04.12.2021 Varbergs – Mjallby 2 2.20 0:3
03.12.2021 Zwickau – Saarbrucken 2 2.50 1:2
02.12.2021 Real Potosi – Independiente Petroleros 2 2.30 0:5
01.12.2021 Queen of South – Morton 1 2.30 2:1
 

 

 

 

 

 

 

NOVEMBER 2021
DATE MATCH TIP ODD RESULT
30.11.2021 Wurzburger Kickers – Braunschweig 2 2.20 0:2
29.11.2021 U. Catolica – Nueve de Octubre 1 2.00 3:0
28.11.2021 Leganes – Las Palmas 1 2.20 4:1
27.11.2021 Rizespor – Kayserispor 1 2.20 1:0
26.11.2021 Regensburg – SG Dynamo Dresden 1 2.15 3:1
25.11.2021 K. Almaty – Basel 2 2.10 2:3
24.11.2021 QPR – Huddersfield 1 2.00 1:0
23.11.2021 Sutton – Mansfield 1 2.10 2:0
22.11.2021 Torino – Udinese 1 2.10 2:1
21.11.2021 St. Truiden – Antwerp 1 2.40 2:1
20.11.2021 Basaksehir – Sivasspor 1 2.10 2:1
19.11.2021 Sandhausen – Nurnberg 2 2.00 1:2
18.11.2021 Petrolul – Concordia 1 2.10 1:0
17.11.2021 Celaya – Cancun 1 2.00 3:1
16.11.2021 Chorley – Kettering 1 2.00 3:1
15.11.2021 Maastricht – Den Bosch 2 2.30 0:1
14.11.2021 UD Ibiza – Almeria 2 2.20 0:1
13.11.2021 Maidenhead – Dag & Red 2 2.20 1:4
12.11.2021 Derry City – Sligo Rovers Btts-Yes 2.10 2:0
11.11.2021 Armenia – North Macedonia 3+ 2.00 0:5
10.11.2021 Russia U19 – Greece U19 1 2.00 1:0
09.11.2021 Tranmere – Oldham 1 2.00 3:2
08.11.2021 Cesena – Pescara 1 2.15 1:0
07.11.2021 Lecce – Parma 1 2.10 4:0
06.11.2021 OFI Crete – Atromitos 1 2.15 2:0
05.11.2021 Grazer – Amstetten 2 2.40 0:3
04.11.2021 FK Zorya Luhansk – CSKA Sofia 1 2.10 2:0
03.11.2021 Legnica – Leczna 1 2.30 2:2
02.11.2021 Waterford – Derry City Btts-Yes 2.00 2:2
01.11.2021 Gubbio – Siena 3+ 2.10 1:2

 

OCTOBER 2021
DATE MATCH TIP ODD RESULT
31.10.2021 F. Amager – Hvidovre IF 2 2.00 1:4
30.10.2021 Plymouth – Ipswich 1 2.40 2:1
29.10.2021 Den Bosch – Jong Utrecht 1 2.45 2:1
28.10.2021 Westerlo – Antwerp 1 2.40 2:1
27.10.2021 Ilves – Inter Turku 2 2.00 0:2
26.10.2021 Colchester – Sutton 2 2.50 1:3
25.10.2021 Cerro Largo – Plaza Colonia 1 2.40 1:0
24.10.2021 Trofense – Covilha 1 2.30 3:0
23.10.2021 Aberdeen – Hibernian 1 2.30 1:0
22.10.2021 Aue – Ingolstadt 1 2.40 1:0
21.10.2021 Feyenoord – Union Berlin 1 2.10 3:1
20.10.2021 Trento – FeralpiSalo 2 2.20 1:2
19.10.2021 Cartagines – Sporting San Jose 1 2.00 1:0
18.10.2021 Jong Utrecht – Roda 2 2.00 1:2
17.10.2021 Strasbourg – St Etienne 1 2.10 5:1
16.10.2021 Cobreloa – Copiapo 1 2.20 2:0
15.10.2021 Burton – Morecambe 1 2.10 3:2
14.10.2021 CA Cerro – Racing Montevideo 1 2.50 1:0
13.10.2021 Fortaleza – Gremio 1 2.00 1:0
12.10.2021 Basford – Buxton 3+ 2.00 1:3
11.10.2021 Loznica – Zeleznicar Pancevo 1 2.20 2:1
10.10.2021 Dordrecht – Helmond 2 2.40 0:1
09.10.2021 Bromley – Torquay 1 2.30 2:0
08.10.2021 Tranmere – Colchester 1 2.30 2:0
07.10.2021 Dep. Cali – Atl. Nacional Btts-Yes 2.00 2:2
06.10.2021 Cobreloa – Magallanes 1 2.00 2:1
05.10.2021 Dover – Aldershot 2 2.00 1:2
04.10.2021 Cobresal – A. Italiano Btts-Yes 2.00 1:2
03.10.2021 Villarreal – Betis 1 2.10 2:0
02.10.2021 Guingamp – Rodez Btts-Yes 2.10 2:1
01.10.2021 Ponferradina – Valladolid 1 3.50 2:2
 

 

 

 

 

 

 

 

 

 

SEPTEMBER 2021
DATE MATCH TIP ODD RESULT
30.09.2021 Genk – D. Zagreb 3+ 2.00 0:3
29.09.2021 Raith – Dunfermline 1 2.10 1:1
28.09.2021 Altrincham – King’s Lynn 1 2.00 4:1
27.09.2021 Atromitos – Aris 2 2.30 1:3
26.09.2021 Mirandes – Leganes 2 2.30 1:2
25.09.2021 Eastleigh – Woking 1 2.20 3:2
24.09.2021 Waterford – Drogheda 1 2.30 1:0
23.09.2021 Granada CF Real Sociedad 3+ 2.10 2:3
22.09.2021 Avai – Goias 1 2.50 1:0
21.09.2021 Alfreton – Leamington 1 2.30 1:0
20.09.2021 Udinese – Napoli 3+ 2.00 0:4
19.09.2021 Leiknir – Keflavik 2 2.40 0:1
18.09.2021 Sandhausen – Heidenheim 2 2.10 1:3
17.09.2021 Breda – FC Emmen 2 2.30 1:2
16.09.2021 PSV – Real Sociedad 3+ 2.10 2:2
15.09.2021 Birmingham – Fulham 3+ 2.00 1:4
14.09.2021 Hyde – Stafford 1 2.40 1:0
13.09.2021 Elfsborg – Hacken 1 2.00 4:2
12.09.2021 Leixoes – Varzim 1 2.00 1:1
11.09.2021 Ararat Yerevan – Alashkert 1 2.10 3:2
10.09.2021 Gijon – Leganes 1 2.10 2:1
09.09.2021 Deportivo Pasto – Deportivo Pereira Btts-Yes 2.10 3:2
08.09.2021 O'Higgins – Colo Colo Btts-Yes 2.20 2:3
07.09.2021 Universidad Católica – Audax Italiano Btts-Yes 2.10 3:1
06.09.2021 Huesca – R. Oviedo 3+ 2.00 1:2
05.09.2021 Gubbio – Fermana 1 2.20 1:0
04.09.2021 Slovenia – Slovakia Btts-Yes 2.00 1:1
03.09.2021 Girona – Gijon 3+ 2.10 1:2
02.09.2021 Estonia – Belgium 3+ 2.00 2:5
01.09.2021 Slovenia – Slovakia Btts-Yes 2.00 1:1

 

AUGUST 2021
DATE MATCH TIP ODD RESULT
31.08.2021 Marienlyst – Slagelse 1 2.10 3:1
30.08.2021 Alfreton – Chorley 2 2.30 0:1
29.08.2021 Rayo Vallecano – Granada CF 1 2.20 4:0
28.08.2021 Wigan – Portsmouth 1 2.50 1:0
27.08.2021 Nurnberg – Karlsruher SC 1 2.30 2:1
26.08.2021 La Serena – A. Italiano 2 2.40 0:2
25.08.2021 Ghazl El Mahallah – Arab Contractors 3+ 2.00 1:2
24.08.2021 America MG – Bragantino 2 2.30 0:2
23.08.2021 Stjarnan – Fylkir 1 2.25 2:0
22.08.2021 Wolves – Tottenham 2 2.30 0:1
21.08.2021 Pau FC – Bastia 1 2.30 2:0
20.08.2021 Hannover – Heidenheim 1 2.30 1:0
19.08.2021 Vendsyssel – Horsens 2 2.10 1:2
18.08.2021 Misr Lel Makkasa – National Bank Egypt 2 2.40 3:5
17.08.2021 Millwall – Fulham 2 2.40 1:2
16.08.2021 Vejle – Aalborg 2 2.30 0:1
15.08.2021 Estudiantes de La Plata – Boca Juniors 1 3.00 1:0
14.08.2021 Sundsvall – Varnamo 1 2.30 2:0
13.08.2021 Charleroi – Antwerp 1 2.30 1:1
12.08.2021 Teuta (Alb) – Shamrock Rovers (Irl) 2 2.10 0:2
11.08.2021 Al Ahly – El Ismaily Btts-Yes 2.00 1:1
10.08.2021 Port Vale – Sunderland 2 2.25 1:2
09.08.2021 Korona Kielce – Puszcza 1 2.10 3:1
08.08.2021 Coventry – Nottingham 1 2.30 2:1
07.08.2021 Gorica – Hajduk Split 2 2.30 1:3
06.08.2021 Den Bosch – Helmond 1 2.20 2:0
05.08.2021 Dinamo Batumi (Geo) – Sivasspor (Tur) 3+ 2.00 1:2
04.08.2021 Brauerei Egg – Admira Dornbirn 2 2.30 1:2
03.08.2021 Ayacucho – U. San Martin 1 2.30 1:0
02.08.2021 Akhmat Grozny – Sochi 3+ 2.10 1:2
01.08.2021 Odense – FC Copenhagen 2 2.30 0:2

 

JULY 2021
DATE MATCH TIP ODD RESULT
31.07.2021 Mlada Boleslav – Jablonec 1 2.30 3:0
30.07.2021 Shamrock Rovers – St. Patricks 1 2.10 3:1
29.07.2021 Aswan SC – Al Ahly 3+ 2.00 1:3
28.07.2021 Hertha Berlin II – Meuselwitz 1 2.30 1:0
27.07.2021 TB Berlin – Furstenwalde 1 2.00 3:1
26.07.2021 U. Magdalena – Fortaleza 3+ 2.00 3:1
25.07.2021 Curico Unido – U. De Chile 2 2.30 1:2
24.07.2021 Oostende – Charleroi 3+ 2.00 0:3
23.07.2021 Schalke – Hamburger SV Btts-Yes 2.00 1:3
22.07.2021 Dudelange (Lux) – Bohemians (Irl) 2 2.40 0:1
21.07.2021 Cobreloa – D. Puerto Montt 1 2.40 2:0
20.07.2021 Alashkert (Arm) – Sheriff Tiraspol (Mda) 2 2.20 0:1
19.07.2021 Orgryte – Vasalunds 1 2.25 3:1
18.07.2021 Tromso – Rosenborg 3+ 2.00 1:2
17.07.2021 America De Cali – Junior 3+ 2.10 3:1
16.07.2021 Midtjylland – Odense 3+ 2.00 1:2
15.07.2021 San Felipe – Deportes Iquique 1 2.40 3:1
14.07.2021 Neftci Baku (Aze) – Dinamo Tbilisi (Geo) Btts-Yes 2.00 2:1
13.07.2021 Tammeka – Narva 1 2.55 3:2
12.07.2021 KTP – Mariehamn 2 2.30 1:3
11.07.2021 Misr Lel Makkasa – Al Ahly 3+ 2.10 1:4
10.07.2021 Wanderers – River Plate Btts-Yes 2.00 1:2
09.07.2021 Chapecoense-SC – Corinthians 2 2.30 0:1
08.07.2021 Hafnarfjordur (Ice) – Sligo Rovers (Irl) 1 2.40 1:0
07.07.2021 Santos – Athletico-PR Btts-Yes 2.00 2:1
06.07.2021 A. Klagenfurt (Aut) – Munich 1860 (Ger) 2 2.40 1:2
05.07.2021 Raufoss – Bryne 1 2.30 4:1
04.07.2021 Independiente Rivadavia – Guillermo Brown Btts-Yes 2.35 0:2
03.07.2021 River Plate – Boston River Btts-Yes 2.00 1:1
02.07.2021 Shamrock Rovers – Dundalk Btts-Yes 2.00 3:1
01.07.2021 Botafogo RJ – Vitoria 1 2.05 1:0

 

JUNE 2021
DATE MATCH TIP ODD RESULT
30.06.2021 VPS – Ekenas 1 2.15 2:1
29.06.2021 England – Germany 1 2.40 2:0
28.06.2021 Notvikens IK – Skelleftea 2 2.20 0:2
27.06.2021 Start – Bryne 2 2.70 2:3
26.06.2021 San Miguel – Villa San Carlos 1 2.60 1:0
25.06.2021 Ghazl El Mahallah – Al Ittihad Btts-Yes 2.00 1:1
24.06.2021 Bragantino – Palmeiras Btts-Yes 2.10 3:1
23.06.2021 Goias – Avai 1 2.10 3:0
22.06.2021 Grorud – Start 2 2.50 1:4
21.06.2021 Juventude – Sport Recife 1 2.30 1:0
20.06.2021 Vila Nova FC – Coritiba 2 2.40 0:1
19.06.2021 Portugal – Germany 2 2.20 2:4
18.06.2021 Fluminense – Santos 1 2.20 1:0
17.06.2021 BFC Daugavpils – Ventspils 1-1 2.50 0:1/3:2
16.06.2021 Turkey – Wales 2 2.75 0:2
15.06.2021 Saudi Arabia – Uzbekistan 1 2.40 3:0
14.06.2021 Colombia – Ecuador 1 2.15 1:0
13.06.2021 Atletico-MG – Sao Paulo 1 2.25 1:0
12.06.2021 River Plate – Progreso 1 2.00 4:0
11.06.2021 KAC Kenitra – Olympique Khouribga 2 2.90 0:2
10.06.2021 Deportivo Moron – San Martin S.J. 1 2.30 1:0
09.06.2021 Wydad – Difaa El Jadidi Btts-Yes 2.25 4:2
08.06.2021 Czech Republic – Albania Btts-Yes 2.30 3:1
07.06.2021 NO MATCH      
06.06.2021 Padova – Avellino 1 2.20 1:1
05.06.2021 Figueirense – Oeste Btts-Yes 2.50 1:0
04.06.2021 Latvia – Lithuania 1 2.50 3:1
03.06.2021 Nepal – Chinese Taipei 1 2.30 2:0
02.06.2021 Sudtirol – Avellino 1 2.25 1:0
01.06.2021 Sollentuna – Hammarby TFF 1 2.20 2:1

 

MAY 2021
DATE MATCH TIP ODD RESULT
31.05.2021 Antofagasta – Huachipato 1 2.45 1:0
30.05.2021 Haugesund – Viking 1 2.20 4:2
29.05.2021 La Serena – Melipilla Btts-Yes 2.10 5:1
28.05.2021 St. Patricks – Dundalk 2 2.60 0:2
27.05.2021 NO MATCH      
26.05.2021 Chapecoense-SC – Avai 1 2.10 1:1
25.05.2021 NO MATCH      
24.05.2021 Varnamo – Akropolis 1 2.10 1:0
23.05.2021 Gremio – Internacional 1 2.30 1:1
22.05.2021 Celta Vigo – Betis 2 2.25 2:3
21.05.2021 Smouha – El Entag El Harby 1 2.00 4:2
20.05.2021 Nijmegen – Roda 1 2.00 3:0
19.05.2021 Villefranche – Niort 1 2.10 3:1
18.05.2021 Airdrieonians – Morton 1 2.50 0:1
17.05.2021 Lubeck – Zwickau 2 2.60 1:2
16.05.2021 Zwolle – Groningen 1 2.40 1:0
15.05.2021 Burnley – Leeds 2 2.20 0:4
14.05.2021 Jihlava – Zizkov 1 2.30 3:2
13.05.2021 San Carlos – Saprissa 1 2.40 2:0
12.05.2021 Tirol – Sturm Graz 2 2.10 2:3
11.05.2021 Vendsyssel – Kolding IF 1 2.40 3:0
10.05.2021 Smouha – Wadi Degla 1 2.30 2:1
09.05.2021 Racing Club – San Lorenzo Btts-Yes 2.00 2:0
08.05.2021 La Serena – Nublense 1 2.30 1:0
07.05.2021 G.A. Eagles – Nijmegen 1 2.00 2:1
06.05.2021 FC Arges – FC Voluntari 1 2.10 3:0
05.05.2021 Servette – St. Gallen 1 2.30 0:1
04.05.2021 Le Mans – Creteil 1 2.10 4:0
03.05.2021 Burnley – West Ham 2 2.20 1:2
02.05.2021 Lorient – Angers 1 2.20 2:0
01.05.2021 Brighton – Leeds 1 2.10 2:0

 

APRIL 2021
DATE MATCH TIP ODD RESULT
30.04.2021 Cajamarca – Ayacucho 2 2.50 1:3
29.04.2021 Villarreal – Arsenal 1 2.50 2:1
28.04.2021 Orleans – Villefranche 2 2.50 1:3
27.04.2021 Trinec – Zizkov 1 2.60 2:0
26.04.2021 Lazio – AC Milan 1 2.45 3:0
25.04.2021 Sonderjyske – Vejle 1 2.40 1:0
24.04.2021 Charlton – Peterborough 2 2.50 0:1
23.04.2021 Helmond – Eindhoven FC 1 2.20 1:0
22.04.2021 Aarhus – Randers FC 1 2.25 2:0
21.04.2021 Osasuna – Valencia 3+ 2.05 3:1
20.04.2021 Bristol Rovers – MK Dons 2 2.60 0:2
19.04.2021 Bandirmaspor – Boluspor 1 2.30 2:3
18.04.2021 AEL Limassol – Apollon 2 2.50 1:2
17.04.2021 Viktoria Koln – Hallescher 1 2.20 2:0
16.04.2021 Blackburn – Derby 1 2.20 2:1
15.04.2021 Alianza Atl. – Ayacucho 2 2.10 0:1
14.04.2021 VfL Osnabruck – Regensburg 2 2.40 0:1
13.04.2021 Dg & Red – Eastleigh 1 2.40 2:0
12.04.2021 Meppen – Wehen 2 2.15 0:3
11.04.2021 Lommel SK – St. Gilloise 2 2.45 0:2
10.04.2021 Longford – Drogheda 2 2.40 0:4
09.04.2021 Helsingor – Koge 1 2.10 3:1
08.04.2021 Arsenal – Slavia Prague Btts-Yes 2.00 1:1
07.04.2021 Juventus – Napoli 1 2.00 2:1
06.04.2021 Casa Pia – Chaves 2 2.25 1:2 
05.04.2021 Aalborg – Sonderjyske 1 2.10 3:2
04.04.2021 Nurnberg – Paderborn 1 2.30 2:1
03.04.2021 Cagliari – Verona 2 2.60 0:2
02.04.2021 Neman – Dynamo Brest 2 2.60 0:1
01.04.2021 Santa Cruz – Sport Recife 2 2.40 1:2

 

MARCH 2021
DATE MATCH TIP ODD RESULT
31.03.2021 Fluminense – Vasco Btts-Yes 2.00 1:1
30.03.2021 Dep. Cali – Dep. Pasto Btts-Yes 2.10 1:1
29.03.2021 Penarol – Nacional-AM 1 2.50 2:1
28.03.2021 Atlas – Leandro N. Alem 1 2.20 2:0
27.03.2021 Los Andes – Fenix Btts-Yes 2.20 1:1
26.03.2021 Fluminense – Volta Redonda Btts-Yes 2.20 2:3
25.03.2021 La Equidad – Petrolera 1/1 2.50 1:0/1:1
24.03.2021 Finland – Bosnia & Herzegovina Btts-Yes 2.10 2:2
23.03.2021 Carrick Rangers – Portadown 1 2.10 5:3
22.03.2021 Munich 1860 – SG Dynamo Dresden 2 2.60 1:0
21.03.2021 Besiktas – Fenerbahce 1 2.30 1:1
20.03.2021 AFC Koln II – Schalke II 3+ 2.35 5:2
19.03.2021 FK Pardubice – Mlada Boleslav 3+ 2.10 2:2
18.03.2021 NO MATCH      
17.03.2021 Huila – Cartagena Btts-Yes 2.00 2:3
16.03.2021 Crawley – Walsall 1 2.30 1:1
15.03.2021 Fenix – Rentistas 1 2.00 3:0
14.03.2021 Vitoria Guimaraes – Gil Vicente 1 2.10 2:4
13.03.2021 Defensa y Justicia – Newells Old Boys 1 2.10 4:0
12.03.2021 Levante – Valencia 1 2.45 1:0
11.03.2021 Boavista U23 – Sporting U23 2 2.05 1:2
10.03.2021 Istra 1961 – Lok. Zagreb 1 2.50 3:1
09.03.2021 Guairena FC – 12 de Octubre 1 2.00 0:0
08.03.2021 Alcorcon – Mirandes 1 2.40 4:0
07.03.2021 Vendsyssel – Helsingor 2 2.20 1:2
06.03.2021 Lubeck – Viktoria Koln 2 2.50 1:2
05.03.2021 Grasshoppers – Winterthur 1 2.10 0:1
04.03.2021 Sonderjyske – Odense Btts-Yes 2.10 1:1
03.03.2021 Nantes – Reims 3+ 2.00 1:2
02.03.2021 Accrington – Ipswich 3+ 2.10 1:2
01.03.2021 Moreirense – Belenenses Btts-Yes 2.20 2:2
 

 

 

FEBRUARY 2021
DATE MATCH TIP ODD RESULT
28.02.2021 Crotone – Cagliari 2 2.30 0:2
27.02.2021 Sevilla – Barcelona 2 2.20 0:2
26.02.2021 Horn – A. Lustenau 1 2.60 4:3
25.02.2021 D. Zagreb 1 Krasnodar 1 2.30 1:0
24.02.2021 Jablonec – Slovacko 3+ 2.00 0:3
23.02.2021 Hartberg – Tirol 1 2.60 1:0
22.02.2021 Smouha – El Masry Btts-Yes 2.20 1:1
21.02.2021 Carrarese – Novara 3+ 2.10 1:2
20.02.2021 Girona – Castellon 1 2.00 2:1
19.02.2021 Genoa – Verona 1 2.80 2:2
18.02.2021 Bastia – Villefranche 1 2.15 1:1
17.02.2021 Antwerp – Rangers 2&3+ 3.00 3:4
16.02.2021 Salford – Barrow 1 2.00 1:0
15.02.2021 Toulouse – AC Ajaccio 1 2.05 3:0
14.02.2021 Sampdoria – Fiorentina 1 2.45 2:1
13.02.2021 Crystal Palace – Burnley 2 3.10 0:3
12.02.2021 Kolding IF – Helsingor 2 2.35 0:2
11.02.2021 Montevideo City – Nacional 2 2.40 1:2
10.02.2021 Ol. Nicosia – APOEL 2 2.15 2:3
09.02.2021 Peterborough – Ipswich 1 2.30 2:1
08.02.2021 Panetolikos – Giannina 2 2.45 1:2
07.02.2021 Nordsjaelland – Odense 2 2.40 0:2
06.02.2021 Mezokovesd-Zsory – Honved 1 2.30 2:1
05.02.2021 Nancy – Pau FC 1 2.15 1:0
04.02.2021 Asteras Tripolis – Aris 2 2.40 0:2
03.02.2021 AEL Limassol – APOEL 1 2.10 2:0
02.02.2021 Charlton – Portsmouth 2 2.50 1:3
01.02.2021 Santa Clara – Belenenses 1 2.25 2:0

 

JANUARY 2021
DATE MATCH TIP ODD RESULT
31.01.2021 Crotone – Genoa 2 2.60 0:3
30.01.2021 Chambly – Caen 1 2.55 4:2
29.01.2021 Slaven Belupo – Varazdin 1 2.20 2:0
28.01.2021 Goianesia – Goias 2 2.30 2:3
27.01.2021 Dundee Utd – St. Mirren 2 2.25 1:5
26.01.2021 Mannheim – SG Dynamo Dresden 1 2.60 1:0
25.01.2021 FC Porto B – Benfica B Btts-Yes 2.20 1:1
24.01.2021 Lecce – Empoli 3+ 2.20 2:2
23.01.2021 Thun – Schaffhausen 1 2.30 3:1
22.01.2021 Smouha – Pyramids Btts-Yes 2.10 1:1
21.01.2021 Waregem – Leuven 2 2.50 2:3
20.01.2021 Villarreal – Granada CF 3+ 2.30 2:2
19.01.2021 Avai – Juventude 3+ 2.30 5:2
18.01.2021 Astra – U Craiova Btts-Yes 2.20 1:1
17.01.2021 AEK Athens FC – Atromitos Btts-Yes 2.30 2:1
16.01.2021 Sampdoria – Udinese 1 2.80 2:1
15.01.2021 Lazio – AS Roma 1 2.90 3:0
14.01.2021 El Gouna – Al Ittihad 1 3.00 2:0
13.01.2021 Supersport Utd – Bloem Celtic Btts-Yes 2.20 2:1
12.01.2021 Granada CF – Osasuna 1 2.30 2:0
11.01.2021 Pyramids – Wadi Degla Btts-Yes 2.10 1:1
10.01.2021 KV Mechelen – Antwerp 1 2.60 3:0
09.01.2021 Racing Club – Newells Old Boys 1 2.60 3:1
08.01.2021 CRB – Confianca 1 2.30 2:0
07.01.2021 Huachipato – Union La Calera 3+ 2.10 4:3
06.01.2021 Marseille – Montpellier 1 2.10 3:1
05.01.2021 Valenciennes – Nancy 3+ 2.50 2:3
04.01.2021 Volos – Atromitos 1 2.50 1:0
03.01.2021 AEK Larnaca – Omonia Btts-Yes 2.10 0:3
02.01.2021 Hampton & Richmond – Dorking 2 2.30 1:1
01.01.2021 Pyramids – El Entag El Harby Btts-Yes 2.20 3:2

 

 

 

 

 

 

 

 

DECEMBER 2020
DATE MATCH TIP ODD RESULT
31.12.2020 Royal Pari – Wilstermann 1 2.60 3:0
30.12.2020 Juventude – Ponte Preta 1 2.60 2:1
29.12.2020 Union de Santa Fe – Lanus 1 2.30 2:0
28.12.2020 Newells Old Boys – Central Cordoba 3+ 2.10 3:1
27.12.2020 Entella – Pescara 1 3.00 3:0
26.12.2020 Barnsley – Huddersfield 1 2.30 2:1
25.12.2020 Ghazl El Mahallah – El Gaish Btts-Yes 2.10 2:1
24.12.2020 Sivasspor – Genclerbirligi 3+ 2.00 3:1
23.12.2020 Montpellier – Lille 3+ 2.20 2:3
22.12.2020 FC Halifax – Eastleigh 1 2.40 3:1
21.12.2020 Tenerife – Girona 1 2.40 2:0
20.12.2020 Cadiz CF – Getafe 3+ 3.20 0:2
19.12.2020 Aarau – Thun 1 2.40 3:1
18.12.2020 Oeste – Vitoria 3+ 2.10 2:1
17.12.2020 Huachipato – Curico Unido 1 2.15 1:0
16.12.2020 Zalaegerszegi – MTK Budapest 1 2.20 2:0
15.12.2020 Annecy – Concarneau 3+ 2.60 2:4
14.12.2020 Celta Vigo – Cadiz CF 3+ 2.20 4:0
13.12.2020 Lorient – Nimes 1 2.10 3:0
12.12.2020 Luton – Preston 1 2.60 3:0
11.12.2020 Kasimpasa – Denizlispor 1 2.10 3:2
10.12.2020 Maccabi Tel Aviv – Sivasspor 1 2.10 1:0
09.12.2020 Preston – Middlesbrough 1 2.80 3:0
08.12.2020 Hull – Crewe 1 2.00 0:0
07.12.2020 Argentinos Juniors – Estudiantes de La Plata 1 2.10 1:0
06.12.2020 Dunajska Streda – Zlate Moravce Vrable Btts-Yes 2.00 1:2
05.12.2020 Arsenal Sarandi – Racing Club 1 2.30 1:0
04.12.2020 Quevilly Rouen – Bastia Borgo Btts-Yes 2.00 4:0
03.12.2020 Curico Unido – Audax Italiano 1 2.10 4:1
02.12.2020 Zrinjski – Zeljeznicar Btts-Yes 2.20 1:2
01.12.2020 Kidderminster – Kettering 1 2.00 0:2

 

NOVEMBER 2020
DATE MATCH TIP ODD RESULT
30.11.2020 Atletico Tucuman – Arsenal Sarandi 1 2.10 3:2
29.11.2020 Saarbrucken – Kaiserslautern 1 2.00 1:1
28.11.2020 Newport – Salford 1 2.45 3:0
27.11.2020 Zamalek – Al Ahly Btts-Yes 2.20 1:2
26.11.2020 Logrones – Albacete 1 2.20 2:0
25.11.2020 Valledupar – Cortulua Btts-Yes 2.10 0:0
24.11.2020 Crawley – Grimsby 1 2.20 1:2
23.11.2020 Salernitana – Cremonese 1 2.10 2:1
22.11.2020 Zlatibor Cajetina – Backa 1 2.20 1:0
21.11.2020 King’s Lynn – Dover 1 2.00 2:0
20.11.2020 Liberec – Jablonec 1 2.20 1:3
19.11.2020 Petrolera – Millonarios Btts-Yes 2.20 2:2
18.11.2020 Albania – Belarus Btts-Yes 2.10 3:2
17.11.2020 Ecuador – Colombia 1 2.70 6:1
16.11.2020 Zimbabwe – Algeria 3+ 2.20 2:2
15.11.2020 Las Palmas – Tenerife 1 2.75 1:0
14.11.2020 Uerdingen – Unterhaching 1 2.50 3:1
13.11.2020 Operario – Nautico 3+ 2.50 3:1
12.11.2020 Juve Stabia – Palermo 3+ 2.10 1:2
11.11.2020 Limon – Guadalupe 1 2.50 2:1
10.11.2020 Santa Fe – Deportes Tolima 1 2.50 1:0
09.11.2020 Cruzeiro – Guarani 3+ 2.60 3:3
08.11.2020 Sampaio Correa – Vitoria 1 2.10 2:1
07.11.2020 Empoli – Reggina 1 2.40 3:0
06.11.2020 Laval – Bourg en Bresse 1 2.40 0:1
05.11.2020 FK Crvena zvezda – Gent 1 / 1 2.75 1:1 / 2:1
04.11.2020 Zaragoza – Girona 3+ 2.70 2:2
03.11.2020 Plymouth – Swindon 1 2.10 4:2
02.11.2020 Palmeiras – Atletico MG 1 2.30 3:0
01.11.2020 Lugo – Rayo Vallecano 1 3.50 1:0

 

OCTOBER 2020
DATE MATCH TIP ODD RESULT
31.10.2020 Schaffhausen – Kriens 1 2.50 3:1
30.10.2020 Karagumruk – Erzurum BB 1 2.60 5:1
29.10.2020 Real San Andres – Chico 3+ 2.50 2:1
28.10.2020 Koper – Celje 1 2.30 3:0
27.10.2020 Crawley – Tranmere 1 2.60 4:0
26.10.2020 CSKA Moscow – Arsenal Tula 3+ 2.10 5:1
25.10.2020 Vibonese – Viterbese 1 2.20 2:2
24.10.2020 Aarau – Xamax 1 2.30 3:1
23.10.2020 Empoli – Pisa 1 2.10 3:1
22.10.2020 Ludogorets – Antwerp 1 2.20 1:2
21.10.2020 Altinordu – Altay 1 2.60 2:1
20.10.2020 Breda – Cambuur 2 2.10 0:4
19.10.2020 Lechia Gdansk – Pogon Szczecin 1 2.30 0:1
18.10.2020 FC Hermannstadt – UTA Arad 1 2.00 1:1
17.10.2020 Needham Market – Bromsgrove 1 2.50 3:0
16.10.2020 Leixoes – Varzim Btts-Yes 2.20 3:1
15.10.2020 Creteil – Bastia Btts-Yes 2.10 2:0
14.10.2020 La Serena – Palestino 1 3.75 4:2
13.10.2020 Azerbaijan – Cyprus 1 2.30 0:0
12.10.2020 Alessandria – Novara 3+ 2.10 1:2
11.10.2020 Estonia – Macedonia 3+ 2.50 3:3
10.10.2020 Crewe – Wigan 1 2.20 3:0
09.10.2020 El Masry – El Ismaily 1 2.30 2:0
08.10.2020 Iceland – Romania 1 2.50 2:1
07.10.2020 Piacenza – Livorno 1 2.30 2:0
06.10.2020 Harrogate – Leicester U21 1 2.20 3:1
05.10.2020 Oss – Dordrecht 1 2.20 2:0
04.10.2020 Cartagena – Lugo 3+ 2.70 2:1
03.10.2020 Rayo Vallecano – Malaga 3+ 2.50 4:0
02.10.2020 Tsarsko Selo – Cherno More 1 3.10 1:0
01.10.2020 Real San Andres – Huila 1 3.00 2:0

 

SEPTEMBER 2020
DATE MATCH TIP ODD RESULT
30.09.2020 Nacional (Uru) – Racing Club (Arg) 3+ 2.20 1:2
29.09.2020 Orleans – Avranches 3+ 2.30 3:1
28.09.2020 Uerdingen – Meppen 2 3.00 0:2
27.09.2020 Sheffield Utd – Leeds 2 2.60 0:1
26.09.2020 Swindon – Burton 1 2.20 4:2
25.09.2020 Puskas Academy – Mezokovesd Zsory 1 2.30 1:0
24.09.2020 Hafnarfjordur – Valur 2 2.10 1:4
23.09.2020 Haka – Rovaniemi 2 5.50 0:2
22.09.2020 Vizela – Covilha 3+ 2.30 2:1
21.09.2020 Laval – Annecy 3+ 2.40 2:1
20.09.2020 San Carlos – Cartagines 1 2.70 1:0
19.09.2020 Silkeborg – Esbjerg 1 2.70 3:1
18.09.2020 Chindia Targoviste – FC Hermannstadt 3+ 2.40 1:3
17.09.2020 Falkenbergs – Varbergs 1 2.80 2:0
16.09.2020 Universidad Católica (Chi) – Gremio (Bra) 1 3.25 2:0
15.09.2020 Osters – Trelleborgs Misr Lel Makkasa – Masr 1 1 1.85 1.70 1:0 3:0
14.09.2020 Haras El Hodood – El Masry 3+ 2.80 1:2
13.09.2020 Valencia – Levante 1 2.10 4:2
12.09.2020 Heerenveen – Willem II 1 2.20 2:0
11.09.2020 Bastia – Bourg en Bresse 3+ 2.20 3:1
10.09.2020 Hapoel Umm al Fahm – Beitar Tel Aviv 1 2.10 1:3
09.09.2020 Sao Paulo – Bragantino 1 2.10 1:1
08.09.2020 Cambridge Utd – Fulham U21 1 2.30 2:0
07.09.2020 Al Ittihad – Misr Lel Makkasa 3+ 3.00 1:3
06.09.2020 Internacional – Bahia Btts-Yes 2.25 2:2
05.09.2020 Deportes Iquique – Huachipato 1 2.75 1:0
04.09.2020 Waterford – St. Patricks 1 3.40 3:0
03.09.2020 Gremio – Sport Recife Btts-Yes 2.50 1:2
02.09.2020 Vestri – Thor Akureyri 1 2.60 4:1
01.09.2020 AFC Wimbledon – Charlton 1 2.80 2:1

 

AUGUST 2020
DATE MATCH TIP ODD RESULT
31.08.2020 Cesar Vallejo – Sport Huancayo 1 2.20 2:0
30.08.2020 Strommen – Jerv 1 2.30 5:2
29.08.2020 Varbergs – Sirius 1 2.80 2:0
28.08.2020 Gaz Metan Medias – FC Arges 1 2.10 2:0
27.08.2020 Arab Contractors – Zamalek 3+ 2.50 2:1
26.08.2020 TPS – HIFK 1 3.10 1:0
25.08.2020 BW Linz (Aut) – Austria Vienna II (Aut) 1 2.40 6:0
24.08.2020 Red Star – Bastia 3+ 2.60 3:5
23.08.2020 Lorient – Strasbourg 3+ 2.40 3:1
22.08.2020 Zamalek – Al Ahly 3+ 2.60 3:1
21.08.2020 Lokomotiva Zagreb – Rijeka 1 4.00 1:0
20.08.2020 New York Red Bulls – New York City 1 2.60 1:0
19.08.2020 Alianza Huanuco – Carlos Mannucci Btts-Yes 2.00 0:1
18.08.2020 Chippa United – Highlands X 3.00 0:0
17.08.2020 Sogndal – Ranheim 1 2.60 4:0
16.08.2020 Borac Banja Luka – Zrinjski 1 2.20 1:0
15.08.2020 Sarpsborg 08 – Molde 1 4.00 2:1
14.08.2020 Highlands – Mamelodi Sundowns X 3.30 1:1
13.08.2020 Girona – Almeria 1 2.30 1:0
12.08.2020 Kaizer Chiefs – Bidvest Wits X 3.30 1:1
11.08.2020 Mamelodi Sundowns – Orlando Pirates X 3.10 0:0
10.08.2020 SJK Akatemia – Mikkelin 1 3.50 1:0
09.08.2020 KuPS – HJK 2 2.50 0:3
08.08.2020 Livingston – Hibernian 2 2.80 1:4
07.08.2020 Confianca – Parana 3+ 3.25 2:2
06.08.2020 Belshina – Slutsk 1 2.20 4:2
05.08.2020 FC Copenhagen – Basaksehir 1 2.60 3:0
04.08.2020 Lillestrom – Sogndal 2 4.00 0:2
03.08.2020 Brage – Trelleborgs 1 2.50 3:0
02.08.2020 Haugesund – Stabaek 1 2.10 3:1
01.08.2020 St. Mirren – Livingston 1 3.00 1:0

 

JULY 2020
DATE MATCH TIP ODD RESULT
31.07.2020 KFUM Oslo – Asane X 3.75 0:0
30.07.2020 Brage – Akropolis X 3.60 1:1
29.07.2020 Sarpsborg 08 – Haugesund Btts-Yes 2.00 0:0
28.07.2020 Hapoel Afula – Hapoel Bnei Lod 3+ 2.10 3:1
27.07.2020 Pisa – Ascoli 1 2.30 1:0
26.07.2020 Ferroviaria – Internacional de Limeira 1 2.30 2:0
25.07.2020 Confianca – Santa Cruz Btts-Yes 2.10 0:0
24.07.2020 Cracovia – Lechia Gdansk 1 2.20 2:2
23.07.2020 Foolad – Zob Ahan 1 2.10 2:1
22.07.2020 Hacken – AIK Btts-Yes 2.00 4:0
21.07.2020 Aston Villa – Arsenal 1 3.50 1:0
20.07.2020 Poli Iasi – Viitorul Constanta X 3.60 1:1
19.07.2020 Neman – Shakhtyor Soligorsk X 3.25 0:0
18.07.2020 GAIS – Umea FC X 3.20 1:1
17.07.2020 Fuenlabrada – Elche 1 2.50 3:1
16.07.2020 Varbergs – Mjallby 1 2.90 1:0
15.07.2020 Sandefjord – Aalesund 1 2.60 1:0
14.07.2020 Hradec Kralove – Sokolov 1 2.10 2:0
13.07.2020 Cremonese – Chievo 1 2.80 1:0
12.07.2020 Leganes – Valencia 1 2.70 1:0
11.07.2020 Ingolstadt – Nurnberg 1 3.25 3:1
10.07.2020 Chojniczanka – Chrobry Glogow 3+ 2.10 3:4
09.07.2020 Aalborg – Aarhus 1 3.50 1:0
08.07.2020 Sundsvall – Vasteras SK 1 3.10 3:1
07.07.2020 Cracovia – Legia 1 3.75 3:0
06.07.2020 Zaragoza – Rayo Vallecano 3+ 2.15 2:4
05.07.2020 Poli Iasi – Sepsi Sf. Gheorghe 1 2.60 3:1
04.07.2020 Mlada Boleslav – Bohemians 1905 1 2.40 3:0
03.07.2020 Fleetwood – Wycombe 3+ 2.70 1:4
02.07.2020 Goteborg – AIK 1 2.40 1:0
01.07.2020 Lugo – Numancia 3+ 2.50 3:1

 

JUNE 2020
DATE MATCH TIP ODD RESULT
30.06.2020 Barnsley – Blackburn 1 2.50 2:0
29.06.2020 Vikingur Reykjavik – Hafnarfjordur 1 2.50 4:1
28.06.2020 Meppen – Ingolstadt 2 2.30 0:2
27.06.2020 Ol. Grudziadz – Tychy 2 2.40 2:4
26.06.2020 Brentford – West Brom 1 2.40 1:0
25.06.2020 Hap. Ramat Gan – MS Kafr Qasim 1 2.50 1:0
24.06.2020 Xanthi FC – Atromitos 1 2.20 1:0
23.06.2020 Admira – Austria Vienna 2 2.10 0:2
22.06.2020 Helsingborg – Elfsborg X 4.00 0:0
21.06.2020 Vitebsk – FC Minsk 1 / 1 3.50 1:0 / 1:0
20.06.2020 Yeni Malatyaspor – Goztepe 1 2.50 2:1
19.06.2020 Odra Opole – Chrobry Glogow 1 2.10 1:0
18.06.2020 Hapoel Petach Tikva – Maccabi Ahi Nazareth 1 2.10 3:1
17.06.2020 Warta Poznan – Termalica B-B. 1 2.50 1:3
16.06.2020 Freiburg – Hertha Berlin 1 2.60 2:1
15.06.2020 Astra – Gaz Metan Medias 1 2.10 0:0
14.06.2020 Bohemians 1905 – Jablonec 1 2.90 3:0
13.06.2020 Leganes – Valladolid 3+ 3.25 1:2
12.06.2020 Malaga – Huesca 3+ 2.50 1:3
11.06.2020 Tondela – Aves 1 / 1 3.50 1:0 / 2:0
10.06.2020 Partizan – FK Crvena zvezda 1 3.00 1:0
09.06.2020 Lokomotiv Plovdiv – Levski Sofia 1 / 1 4.30 2:0 / 2:0
08.06.2020 Tsarsko Selo – Slavia Sofia 2 / 2 3.10 0:1 / 1:3
07.06.2020 Naestved – Koge 1 3.10 2:1
06.06.2020 Pogon Szczecin – Cracovia 1 2.40 1:0
05.06.2020 Horn – Liefering X 3.60 1:1
04.06.2020 Guadalupe – Alajuelense 1 3.40 3:0
03.06.2020 Ceske Budejovice – Sigma Olomouc 1 2.50 2:0
02.06.2020 Hapoel Tel Aviv – Beitar Jerusalem 1 3.50 3:0
01.06.2020 FC Minsk – Slutsk 1 2.60 1:0

 

 

 

 

 

 

MAY 2020
DATE MATCH TIP ODD RESULT
31.05.2020 Honved – Debrecen 1 2.10 3:1
30.05.2020 Koge – Hvidovre X 3.50 1:1
29.05.2020 Vojvodina – Cukaricki X 3.30 1:1
28.05.2020 Sagadam – Ahal 3+ 2.50 1:2
27.05.2020 Hannover – Karlsruher X 3.75 1:1
26.05.2020 Slovacko – Sigma Olomouc X 3.50 0:0
25.05.2020 //  NO  MATCH  // // // //
24.05.2020 Holstein Kiel – Stuttgart 1 3.50 3:2
23.05.2020 Wolfsburg – Dortmund 2/2 3.00 0:1 / 0:2
22.05.2020 Hertha Berlin – Union Berlin 1 2.30 4:0
21.05.2020 Lyngby (Den) – Brondby (Den) 1 4.50 2:0
20.05.2020 Dynamo Brest – BATE 2 2.20 1:3
19.05.2020 H. Akko (Isr) – Hapoel Haifa (Isr) BTTS-Yes 2.10 1:2
18.05.2020 Kopetdag Asgabat – FC Asgabat BTTS-Yes 2.10 1:1
17.05.2020 Belshina – Vitebsk BTTS-Yes 2.10 1:1
16.05.2020 Hoffenheim – Hertha Berlin 2 3.10 0:3
15.05.2020 Zhodino – Gorodeja 3+ 2.50 3:1
14.05.2020 //  NO  MATCH  // // // //
13.05.2020 Nebitci – Ahal BTTS-Yes 2.10 1:2
12.05.2020 //  NO  MATCH  // // // //
11.05.2020 //  NO  MATCH  // // // //
10.05.2020 Dynamo Brest – Dynamo Minsk 1 2.10 2:1
09.05.2020 Smorgon – Lida 1 2.60 1:0
08.05.2020 Gorodeja – FC Minsk BTTS-Yes 2.10 1:1
07.05.2020 FK Gorodeja 2 – Minsk 2 BTTS-Yes 2.00 2:3
06.05.2020 //  NO  MATCH  // // // //
05.05.2020 //  NO  MATCH  // // // //
04.05.2020 //  NO  MATCH  // // // //
03.05.2020 Belshina – Brest 3+ 2.10 0:3
02.05.2020 Rukh Brest – Gorodeja X 3.30 1:1
01.05.2020 Smolevichi – Energetik-BGU 2 2.40 0:2
MARCH 2020
DATE MATCH TIP ODD RESULT
31.03.2020 //  NO  MATCH  // // // //
29.03.2020 //  NO  MATCH  // // // //
28.03.2020 FC Minsk – Dinamo Minsk 3+ 2.30 3:2
27.03.2020 //  NO  MATCH  // // // //
26.03.2020 //  NO  MATCH  // // // //
25.03.2020 //  NO  MATCH  // // // //
24.03.2020 //  NO  MATCH  // // // //
23.03.2020 //  NO  MATCH  // // //